Location: *
(50.2903°S, 172.5375°W)
Time: 00:48:22
(UTC+00:00)

Resurs 1-4 Rocket - Pass Details

Date: 26 February 2020
Orbit: 800 x 813 km, 98.6° (Epoch: 28 March)

Event Time Altitude Azimuth Distance (km) Brightness Sun altitude
Exits shadow 12:30:15 48° 229° (SW) 1,058 2.7 -30.0°
Drops below altitude 10° 12:34:19 10° 201° (SSW) 2,421 5.2 -29.9°
Sets 12:36:43 0° 197° (SSW) 3,357 6.1 -29.8°
